Elmo, TX

7:29 AM CDT on September 30, 2016 (GMT -0500)
Terrell Municipal

Weather History for KTRL - December, 2013

Change the Weather History Date:

Sunday, December 22, 2013

  Actual Average (KDFW) Record (KDFW)
Temperature  
Mean Temperature 41 °F 46 °F  
Max Temperature 50 °F 56 °F 81 °F (1964)
Min Temperature 30 °F 36 °F 3 °F (1989)
Degree Days  
Heating Degree Days 24 19  
Month to date heating degree days 382  
Since 1 July heating degree days 736  
Cooling Degree Days 0 0  
Month to date cooling degree days 0  
Year to date cooling degree days 2752  
Moisture  
Dew Point 33 °F    
Average Humidity 82    
Maximum Humidity 100    
Minimum Humidity 60    
Precipitation  
Precipitation 0.00 in 0.09 in 0.95 in (1937)
Month to date precipitation 1.86  
Year to date precipitation 35.45  
Snow  
Snow 0.00 in 0.00 in 2.00 in (1963)
Month to date snowfall 0.2  
Since 1 July snowfall 0.2  
Snow Depth -    
Sea Level Pressure  
Sea Level Pressure 30.10 in    
Wind  
Wind Speed 10 mph (NW)    
Max Wind Speed 15 mph    
Max Gust Speed 24 mph    
Visibility 10 miles    
Events      
T = Trace of Precipitation, MM = Missing Value Source: NWS Daily Summary

Daily Weather History Graph

Daily Weather History Graph

Search for Another Location

Airport or City:

Trip Planner

Search our weather history database for the weather conditions in past years. The results will help you decide how hot, cold, wet, or windy it might be!

Date:

Astronomy

Dec. 22, 2013 Rise Set
Actual Time 7:23 AM CST 5:23 PM CST
Civil Twilight 6:56 AM CST 5:51 PM CST
Nautical Twilight 6:25 AM CST 6:21 PM CST
Astronomical Twilight 5:55 AM CST 6:52 PM CST
Moon 10:22 PM CST (12/22) 10:34 AM CST (12/22)
Length of Visible Light 10h 54m
Length of Day
9h 59m
Waning Gibbous, 76% of the Moon is Illuminated
Dec 22
Waning Gibbous
Dec 25
Last Quarter
Jan 1
New
Jan 7
First Quarter
Jan 15
Full

Hourly Weather History & Observations

Time (CST) Temp. Windchill Dew Point Humidity Pressure Visibility Wind Dir Wind Speed Gust Speed Precip Events Conditions
12:53 AM 50.0 °F - 50.0 °F 100% 29.79 in 7.0 mi South 6.9 mph - N/A   Overcast
1:04 AM 50.0 °F - 50.0 °F 100% 29.80 in 9.0 mi SW 5.8 mph - N/A   Overcast
1:53 AM 50.0 °F - 50.0 °F 100% 29.83 in 5.0 mi WNW 8.1 mph - N/A   Overcast
2:53 AM 42.1 °F 34.9 °F 42.1 °F 100% 29.90 in 5.0 mi NNW 13.8 mph - N/A   Overcast
3:53 AM 39.9 °F 32.9 °F 39.0 °F 97% 29.92 in 7.0 mi NW 11.5 mph - N/A   Overcast
4:03 AM 39.9 °F 35.1 °F 39.9 °F 100% 29.92 in 10.0 mi NNW 6.9 mph - N/A   Overcast
4:48 AM 39.2 °F 35.9 °F 37.4 °F 93% 29.95 in 10.0 mi NW 4.6 mph - N/A   Scattered Clouds
4:53 AM 39.0 °F 36.8 °F 37.9 °F 96% 29.95 in 10.0 mi NW 3.5 mph - N/A   Partly Cloudy
5:15 AM 39.9 °F 32.9 °F 37.9 °F 93% 29.97 in 10.0 mi NNW 11.5 mph - N/A   Mostly Cloudy
5:53 AM 39.9 °F 32.5 °F 37.9 °F 93% 29.96 in 10.0 mi NW 12.7 mph - N/A   Overcast
6:27 AM 39.0 °F 33.4 °F 36.0 °F 89% 29.99 in 10.0 mi NNW 8.1 mph - N/A   Mostly Cloudy
6:39 AM 39.0 °F 32.8 °F 35.1 °F 86% 29.99 in 10.0 mi NNW 9.2 mph - N/A   Partly Cloudy
6:53 AM 37.9 °F 29.6 °F 33.1 °F 83% 30.01 in 10.0 mi NW 13.8 mph - N/A   Partly Cloudy
7:53 AM 36.0 °F 27.5 °F 30.9 °F 82% 30.06 in 10.0 mi NW 12.7 mph 24.2 mph N/A   Clear
8:41 AM 36.0 °F 27.5 °F 30.9 °F 82% 30.08 in 10.0 mi NW 12.7 mph - N/A   Mostly Cloudy
8:53 AM 35.1 °F 26.9 °F 30.9 °F 85% 30.09 in 10.0 mi WNW 11.5 mph - N/A   Mostly Cloudy
9:10 AM 35.1 °F 26.4 °F 30.0 °F 82% 30.10 in 10.0 mi NW 12.7 mph - N/A   Scattered Clouds
9:19 AM 35.1 °F 25.5 °F 30.0 °F 82% 30.11 in 10.0 mi NW 15.0 mph - N/A   Mostly Cloudy
9:53 AM 35.1 °F 25.5 °F 30.0 °F 82% 30.13 in 10.0 mi NW 15.0 mph 18.4 mph N/A   Overcast
10:53 AM 35.1 °F 25.9 °F 30.0 °F 82% 30.16 in 10.0 mi NW 13.8 mph - N/A   Overcast
11:53 AM 36.0 °F 26.7 °F 28.9 °F 76% 30.17 in 10.0 mi NW 15.0 mph - N/A   Overcast
12:53 PM 37.0 °F 29.3 °F 28.9 °F 73% 30.17 in 10.0 mi NNW 11.5 mph - N/A   Overcast
1:53 PM 37.9 °F 30.9 °F 28.0 °F 68% 30.17 in 10.0 mi NW 10.4 mph 19.6 mph N/A   Overcast
2:53 PM 41.0 °F 33.1 °F 30.0 °F 65% 30.18 in 10.0 mi NW 15.0 mph 19.6 mph N/A   Overcast
3:25 PM 42.1 °F 35.7 °F 28.9 °F 60% 30.19 in 10.0 mi NW 11.5 mph - N/A   Overcast
3:53 PM 41.0 °F 33.9 °F 28.9 °F 62% 30.21 in 10.0 mi NW 12.7 mph - N/A   Mostly Cloudy
4:53 PM 41.0 °F 34.7 °F 28.0 °F 60% 30.23 in 10.0 mi NNW 10.4 mph - N/A   Partly Cloudy
5:53 PM 39.9 °F 32.9 °F 28.0 °F 63% 30.26 in 10.0 mi NW 11.5 mph - N/A   Overcast
6:53 PM 37.9 °F 30.5 °F 27.0 °F 65% 30.30 in 10.0 mi NNW 11.5 mph - N/A   Clear
7:53 PM 37.0 °F 31.6 °F 27.0 °F 67% 30.32 in 10.0 mi NNW 6.9 mph 17.3 mph N/A   Clear
8:53 PM 35.1 °F 27.4 °F 27.0 °F 72% 30.35 in 10.0 mi North 10.4 mph - N/A   Clear
9:53 PM 33.1 °F 26.1 °F 26.1 °F 75% 30.37 in 10.0 mi North 8.1 mph - N/A   Clear
10:53 PM 32.0 °F 26.4 °F 27.0 °F 82% 30.40 in 10.0 mi North 5.8 mph - N/A   Clear
11:53 PM 30.9 °F 25.2 °F 27.0 °F 85% 30.40 in 10.0 mi North 5.8 mph - N/A   Clear